{"data":{"norad_id":61068,"epoch":"2026-05-25T03:32:56.990976Z","epoch_age_seconds":72660,"freshness":"FRESH","line1":"1 61068U 24164U   26145.14788184  .00000562  00000+0  29870-4 0  9999","line2":"2 61068  53.1618  95.9815 0001262  90.5428 269.5718 15.31703059 95188","mean_motion":15.31703059,"eccentricity":0.0001262,"inclination_deg":53.1618,"raan_deg":95.9815,"arg_perigee_deg":90.5428,"mean_anomaly_deg":269.5718,"bstar":2.987e-5,"rev_number":9518,"period_min":94.013000205153,"perigee_km":469.86654939498,"apogee_km":471.59520364702,"semimajor_km":6848.867876521,"source":"CELESTRAK","updated_at":"2026-05-25T13:38:19.357172Z"}}